Flag for U.S.A. Weather past 2 weeks in Augusta, Maine, U.S.A.

Now
28 °F

Sunny.


Feels Like: 21 °F
Forecast: 10 / 24 °F
Wind: 7 mph from Southwest

Location: Augusta State Airport

Current Time: Mar 3, 2015 at 3:31:31 PM

Latest Report: Mar 3, 2015 at 2:53 PM


Visibility: 10 mi

Pressure: 30.22 "Hg

Humidity: 20%

Dew point: -8 °F

Location of AugustaLocation

Historic Weather in Augusta — Graph

°F

Augusta temperature yesterday

Maximum temperature yesterday: 30 °F (at 11:53 AM)
Minimum temperature yesterday: 17 °F (at 11:53 PM)
Average temperature yesterday: 24 °F

Past Weeks' High & Low Weather Summary

 TemperatureHumidityPressure
High32 °F (Feb 22, 1:53 PM)96% (Feb 21, 9:53 PM)30.69 "Hg (Feb 21, 9:53 PM)
Low-9 °F (Feb 24, 12:53 AM)23% (Mar 3, 12:53 PM)29.44 "Hg (Feb 19, 8:02 PM)
Average15 °F56%30.08 "Hg
* Reported Feb 16 1:53 PM — Mar 3 1:53 PM, Augusta, Weather by CustomWeather, © 2015

Note: Actual official high and low records may vary slightly from our data, if they occured in-between our weather recording intervals... More about our weather records

Advertising

Augusta weather history for previous 24 hours

 ConditionsComfort  
Time TempWeatherWind HumidityBarometerVisibility
1:53 PM
Tue, Mar 3
27 °FSunny.7 mphN/A30.25 "Hg10 mi
12:53 PM25 °FSunny.8 mph23%30.29 "Hg10 mi
11:53 AM23 °FSunny.8 mph26%30.32 "Hg10 mi
10:53 AM20 °FSunny.8 mph29%30.35 "Hg10 mi
9:53 AM17 °FSunny.9 mph32%30.35 "Hg10 mi
8:53 AM15 °FSunny.7 mph35%30.35 "Hg10 mi
7:53 AM13 °FSunny.12 mph40%30.34 "Hg10 mi
6:53 AM11 °FSunny.12 mph44%30.34 "Hg10 mi
5:53 AM10 °FClear.5 mph43%30.31 "Hg10 mi
4:53 AM12 °FClear.3 mph42%30.28 "Hg10 mi
3:53 AM13 °FClear.10 mph42%30.24 "Hg10 mi
2:53 AM14 °FClear.14 mph42%30.21 "Hg10 mi
1:53 AM15 °FClear.12 mph40%30.20 "Hg10 mi
12:53 AM16 °FClear.16 mph38%30.17 "Hg10 mi
11:53 PM
Mon, Mar 2
17 °FClear.15 mph37%30.16 "Hg10 mi
10:53 PM18 °FClear.16 mph37%30.13 "Hg10 mi
9:53 PM20 °FPassing clouds.17 mph43%30.10 "Hg9 mi
8:53 PM21 °FPartly cloudy.13 mph60%30.06 "Hg10 mi
7:53 PM22 °FPassing clouds.15 mph66%30.02 "Hg10 mi
6:53 PM23 °FClear.12 mph53%30.00 "Hg10 mi
5:53 PM25 °FPassing clouds.16 mph46%29.97 "Hg10 mi
4:53 PM27 °FLight snow. Partly sunny.23 mph42%29.91 "Hg7 mi
3:53 PM27 °FScattered clouds.17 mph41%29.89 "Hg10 mi
Weather by CustomWeather, © 2015

See weather overviewHow to use our weather pages